| time (UTC) | temp F | wind direction | speed knots | gust knots | rain 1hr in | rain 24hr in | rain mn in | humidity % | barometer mb |
| 20260506024549 | 32 | 301 | 0.0 | 0.9 | 0.00 | 0.37 | 0.23 | 93 | 1014.6 |
| 20260506023034 | 32 | 302 | 0.0 | 1.7 | 0.00 | 0.37 | 0.23 | 93 | 1014.1 |
| 20260506021532 | 32 | 300 | 0.0 | 0.9 | 0.00 | 0.37 | 0.23 | 93 | 1013.9 |
| 20260506020029 | 32 | 299 | 0.0 | 2.6 | 0.00 | 0.37 | 0.23 | 93 | 1013.4 |
| 20260506014528 | 32 | 360 | 0.0 | 2.6 | 0.00 | 0.37 | 0.23 | 92 | 1013.2 |
| 20260506013026 | 32 | 300 | 0.0 | 1.7 | 0.00 | 0.37 | 0.23 | 92 | 1012.8 |
| 20260506011533 | 32 | 288 | 0.0 | 3.5 | 0.00 | 0.37 | 0.23 | 93 | 1012.8 |
| 20260506010023 | 32 | 299 | 0.0 | 1.7 | 0.00 | 0.37 | 0.23 | 93 | 1012.5 |
| 20260506004540 | 32 | 298 | 0.0 | 3.5 | 0.00 | 0.37 | 0.23 | 92 | 1012.4 |
| 20260506003028 | 32 | 298 | 0.0 | 0.0 | 0.00 | 0.37 | 0.23 | 92 | 1012.3 |
| 20260506001522 | 32 | 303 | 0.0 | 0.0 | 0.00 | 0.37 | 0.23 | 92 | 1012.3 |
| 20260506000022 | 32 | 298 | 0.0 | 0.0 | 0.00 | 0.37 | 0.23 | 92 | 1012.0 |
| 20260505234516 | 32 | 297 | 0.0 | 0.0 | 0.00 | 0.37 | 0.23 | 92 | 1011.8 |
| 20260505233014 | 32 | 360 | 0.0 | 0.9 | 0.00 | 0.37 | 0.23 | 92 | 1011.2 |
| 20260505231520 | 32 | 316 | 0.0 | 1.7 | 0.00 | 0.37 | 0.23 | 92 | 1011.4 |
| 20260505230014 | 32 | 302 | 0.0 | 1.7 | 0.00 | 0.37 | 0.23 | 92 | 1011.3 |
| 20260505224511 | 32 | 290 | 0.0 | 1.7 | 0.00 | 0.37 | 0.23 | 92 | 1011.4 |
| 20260505223008 | 32 | 279 | 0.0 | 1.7 | 0.00 | 0.37 | 0.23 | 91 | 1010.9 |
| 20260505221506 | 33 | 360 | 0.0 | 1.7 | 0.00 | 0.37 | 0.23 | 92 | 1010.1 |
| 20260505220008 | 34 | 291 | 0.0 | 2.6 | 0.01 | 0.37 | 0.23 | 92 | 1010.3 |
| 20260505214504 | 34 | 360 | 0.0 | 2.6 | 0.01 | 0.37 | 0.23 | 92 | 1009.8 |
| 20260505213007 | 34 | 29 | 0.0 | 2.6 | 0.03 | 0.37 | 0.23 | 92 | 1009.6 |
| 20260505211503 | 34 | 355 | 0.0 | 3.5 | 0.03 | 0.37 | 0.23 | 91 | 1009.8 |
| 20260505210003 | 37 | 55 | 0.9 | 3.5 | 0.02 | 0.36 | 0.22 | 92 | 1009.3 |
| 20260505204502 | 37 | 12 | 0.0 | 0.9 | 0.02 | 0.36 | 0.22 | 91 | 1009.6 |
| 20260505203009 | 37 | 12 | 0.0 | 2.6 | 0.00 | 0.34 | 0.20 | 92 | 1009.7 |
| 20260505201503 | 37 | 42 | 0.0 | 1.7 | 0.00 | 0.34 | 0.20 | 92 | 1009.9 |
| 20260505200100 | 37 | 360 | 0.0 | 1.7 | 0.00 | 0.34 | 0.20 | 92 | 1010.0 |
| 20260505194601 | 37 | 9 | 0.0 | 1.7 | 0.00 | 0.34 | 0.20 | 92 | 1009.7 |
| 20260505193125 | 37 | 16 | 0.0 | 0.9 | 0.01 | 0.34 | 0.20 | 92 | 1009.7 |
| 20260505191606 | 37 | 28 | 0.0 | 1.7 | 0.01 | 0.34 | 0.20 | 92 | 1009.3 |
| 20260505190056 | 37 | 13 | 0.0 | 0.9 | 0.01 | 0.34 | 0.20 | 92 | 1009.2 |
| 20260505184601 | 38 | 40 | 0.0 | 2.6 | 0.01 | 0.34 | 0.20 | 93 | 1009.2 |
| 20260505183054 | 37 | 310 | 0.0 | 0.9 | 0.00 | 0.33 | 0.19 | 92 | 1009.5 |
| 20260505181553 | 37 | 5 | 0.0 | 0.0 | 0.00 | 0.33 | 0.19 | 92 | 1009.6 |
| 20260505180053 | 37 | 5 | 0.0 | 0.9 | 0.00 | 0.33 | 0.19 | 93 | 1009.5 |
| 20260505174549 | 36 | 15 | 0.0 | 0.9 | 0.01 | 0.33 | 0.19 | 92 | 1009.5 |
| 20260505173047 | 36 | 15 | 0.0 | 2.6 | 0.01 | 0.33 | 0.19 | 92 | 1009.8 |
| 20260505171549 | 36 | 355 | 0.0 | 0.9 | 0.01 | 0.33 | 0.19 | 92 | 1010.0 |
| 20260505170045 | 36 | 355 | 0.0 | 0.9 | 0.01 | 0.33 | 0.19 | 92 | 1009.6 |
| 20260505164545 | 36 | 355 | 0.0 | 0.0 | 0.00 | 0.32 | 0.18 | 92 | 1009.7 |
| 20260505163044 | 36 | 355 | 0.0 | 0.9 | 0.00 | 0.32 | 0.18 | 93 | 1009.6 |
| 20260505161544 | 35 | 355 | 0.0 | 2.6 | 0.01 | 0.32 | 0.18 | 92 | 1009.7 |
| 20260505153044 | 34 | 360 | 0.0 | 2.6 | 0.03 | 0.32 | 0.18 | 92 | 1009.6 |
| 20260505151538 | 34 | 360 | 0.0 | 0.9 | 0.03 | 0.31 | 0.17 | 92 | 1009.6 |
| 20260505124512 | 33 | 287 | 0.0 | 0.9 | 0.00 | 0.25 | 0.11 | 91 | 1008.2 |
| 20260505123009 | 33 | 279 | 0.0 | 1.7 | 0.01 | 0.25 | 0.11 | 91 | 1007.9 |
| 20260505121506 | 33 | 295 | 0.0 | 0.9 | 0.01 | 0.25 | 0.11 | 91 | 1007.8 |
| 20260505120005 | 33 | 296 | 0.0 | 0.9 | 0.01 | 0.25 | 0.11 | 91 | 1007.6 |
| 20260505114502 | 34 | 303 | 0.0 | 0.9 | 0.02 | 0.25 | 0.11 | 90 | 1007.2 |
| 20260505113107 | 35 | 295 | 0.0 | 0.9 | 0.01 | 0.24 | 0.10 | 90 | 1007.3 |
| 20260505111555 | 35 | 360 | 0.0 | 0.9 | 0.01 | 0.24 | 0.10 | 90 | 1006.9 |
| 20260505101543 | 39 | 296 | 0.0 | 2.6 | 0.08 | 0.23 | 0.09 | 90 | 1005.9 |
| 20260505100040 | 39 | 22 | 0.9 | 4.3 | 0.07 | 0.22 | 0.08 | 90 | 1005.6 |
| 20260505094538 | 40 | 322 | 0.0 | 2.6 | 0.04 | 0.19 | 0.05 | 89 | 1005.5 |
| 20260505093035 | 40 | 360 | 0.0 | 1.7 | 0.01 | 0.16 | 0.02 | 89 | 1005.2 |
| 20260505091532 | 41 | 299 | 0.0 | 6.1 | 0.00 | 0.15 | 0.01 | 89 | 1005.2 |
| 20260505084543 | 41 | 306 | 0.0 | 1.7 | 0.01 | 0.15 | 0.01 | 88 | 1005.0 |
| 20260505083043 | 42 | 295 | 0.0 | 1.7 | 0.01 | 0.15 | 0.01 | 88 | 1004.8 |
| 20260505081527 | 42 | 292 | 0.0 | 1.7 | 0.01 | 0.15 | 0.01 | 87 | 1004.9 |
| 20260505080034 | 42 | 342 | 0.0 | 2.6 | 0.00 | 0.14 | 0.00 | 85 | 1004.7 |
| 20260505074519 | 44 | 360 | 0.0 | 3.5 | 0.00 | 0.14 | 0.00 | 84 | 1004.7 |
| 20260505073027 | 47 | 360 | 0.0 | 1.7 | 0.00 | 0.14 | 0.00 | 83 | 1004.6 |
| 20260505071512 | 47 | 360 | 0.0 | 0.9 | 0.00 | 0.14 | 0.00 | 82 | 1004.3 |
| 20260505070010 | 47 | 360 | 0.0 | 0.9 | 0.00 | 0.14 | 0.00 | 82 | 1004.0 |
| 20260505064509 | 47 | 181 | 0.0 | 0.9 | 0.00 | 0.14 | 0.00 | 83 | 1003.9 |
| 20260505063006 | 47 | 360 | 0.0 | 0.9 | 0.00 | 0.14 | 0.00 | 83 | 1004.0 |
| 20260505061504 | 47 | 360 | 0.0 | 0.9 | 0.00 | 0.14 | 0.00 | 82 | 1003.8 |
| 20260505060004 | 47 | 360 | 0.0 | 0.9 | 0.00 | 0.14 | 0.00 | 83 | 1003.8 |
| 20260505054503 | 46 | 179 | 0.0 | 0.9 | 0.00 | 0.14 | 0.14 | 83 | 1003.9 |
| 20260505053002 | 46 | 160 | 0.0 | 0.9 | 0.00 | 0.14 | 0.14 | 83 | 1003.5 |
| 20260505051502 | 46 | 360 | 0.0 | 1.7 | 0.00 | 0.14 | 0.14 | 84 | 1003.6 |
| 20260505041605 | 46 | 221 | 0.0 | 0.9 | 0.02 | 0.14 | 0.14 | 87 | 1003.7 |
| 20260505040059 | 47 | 245 | 0.0 | 0.9 | 0.06 | 0.14 | 0.14 | 87 | 1003.6 |
| 20260505034558 | 47 | 219 | 0.0 | 0.9 | 0.12 | 0.14 | 0.14 | 87 | 1003.5 |
| 20260505033057 | 47 | 360 | 0.0 | 1.7 | 0.13 | 0.13 | 0.13 | 86 | 1003.7 |
| 20260505031555 | 48 | 258 | 0.0 | 0.9 | 0.12 | 0.12 | 0.12 | 85 | 1003.4 |
| 20260505030110 | 48 | 360 | 0.9 | 3.5 | 0.07 | 0.07 | 0.07 | 82 | 1003.1 |